Regional Weather Roundup
Issued by NWS Charleston, SC

Current Version | Previous Version | Text Only | Print | Product List | Glossary On
Versions: 1 2 3 4 5 6 7 8 9 10 11 12 13 14 15 16 17 18 19 20 21 22 23 24 25 26 27 28 29 30 31 32 33 34 35 36 37 38 39 40 41 42 43 44 45 46 47 48 49 50
000 ASUS42 KCHS 201026 RWRCHS REGIONAL WEATHER ROUNDUP NATIONAL WEATHER SERVICE CHARLESTON SC 600 AM EDT WED SEP 20 2017 NOTE: "FAIR" INDICATES FEW OR NO CLOUDS BELOW 12,000 FEET WITH NO SIGNIFICANT WEATHER AND/OR OBSTRUCTIONS TO VISIBILITY. NOT ALL STATIONS ARE QUALITY CONTROLLED. USE DATA WITH CAUTION... ESPECIALLY DEWPOINT OBSERVATIONS. SCZ027-030-031-034>040-042>050-201100- ...SOUTHEAST SOUTH CAROLINA... CITY SKY/WX TMP DP RH WIND PRES REMARKS N CHARLESTON MOCLDY 73 72 96 CALM 30.00R FOG WATERFRONT PRK N/A 76 74 93 CALM 29.83S JOHNS ISLAND FAIR 73 72 94 CALM 30.00R PINOPOLIS N/A 75 73 94 SW6 29.92R MONCKS CORNER FAIR 68 66 94 CALM 30.00R SUMMERVILLE FAIR 70 68 94 CALM 30.01R BEAUFORT MCAS CLOUDY 74 73 97 CALM 30.00R BEAUFORT ARPT FAIR 73 72 94 CALM 29.99R HILTON HEAD IS NOT AVBL WALTERBORO PTSUNNY 68 68 100 CALM 30.01R ALLENDALE NOT AVBL ...SOUTHERN MIDLANDS AND PEE DEE... CITY SKY/WX TMP DP RH WIND PRES REMARKS GEORGETOWN FAIR 68 66 94 CALM 30.00S FOG KINGSTREE CLOUDY 63 61 94 CALM 30.00R ORANGEBURG PTCLDY 68 66 93 CALM 30.00R FOG BARNWELL FAIR 70 68 94 CALM 30.00R AIKEN FAIR 64 64 100 CALM 30.03S MANNING FAIR 66 63 88 CALM 30.00R FOG COLUMBIA CLEAR 69 65 86 CALM 29.99R SUMTER PTCLDY 69 66 90 CALM 29.97R FLORENCE PTCLDY 66 65 96 CALM 29.99R MYRTLE BEACH CLEAR 69 67 93 W3 30.00R N MYRTLE BEACH CLEAR 70 67 90 W3 29.99R $$ GAZ063-065-086>088-099>101-113>116-118-119-134>141-150-201100- ...SOUTHEAST GEORGIA... CITY SKY/WX TMP DP RH WIND PRES REMARKS SAVANNAH ARPT CLOUDY 75 71 87 SW6 30.00R HUNTER AAF CLOUDY 74 71 90 SW5 29.97R FORT STEWART MOCLDY 72 68 87 CALM 29.98R STATESBORO MOCLDY 72 71 97 CALM 30.00R SYLVANIA CLOUDY 72 72 100 CALM 30.00S CLAXTON FAIR 71 69 96 CALM 30.00R ...CSRA...CENTRAL AND FAR SOUTHEAST GEORGIA... CITY SKY/WX TMP DP RH WIND PRES REMARKS THOMSON CLEAR 66 65 96 CALM 30.04S AUGUSTA-BUSH PTCLDY 69 67 93 CALM 29.98S AUGUSTA-DANIEL PTCLDY 72 69 90 SE3 30.00R SWAINSBORO FAIR 72 72 100 CALM 30.00S VIDALIA MOCLDY 72 70 94 CALM 30.00R EASTMAN FAIR 70 70 100 CALM 30.01R FOG HAZLEHURST FAIR 74 69 82 S3 29.98S ALMA CLEAR 73 68 84 CALM 29.99R WAYCROSS PTCLDY 73 69 89 CALM 30.00R JESUP NOT AVBL BAXLEY FAIR 70 70 100 CALM 29.99S BRUNSWICK PTCLDY 70 66 88 CALM 30.01R SAINT SIMONS MOCLDY 75 72 90 W5 30.00R $$ SCZ027-028-034-036>038-045-046-048>050-GAZ119-141-201100- ...LAKE AND SUPPLEMENTAL COASTAL OBSERVATIONS... STATION/POSITION TIME TEMP WIND PRES WAVE SWELL AIR SEA DIR/SP/G HT/PER HT/PER/DIR (UTC) (F) (DEG/KT/KT) (MB) (FT/S) (FT/S/D) WINYAH BAY NOT AVBL LAKE MURRAY 0920 74 CALM / 1 1014.6 ACE BASIN NERRS 0845 73 CALM 1015.0 FORT PULASKI 0936 76 79 280/ 3/ 5 1015.9R SAPELO ISLAND 0900 76 CALM 1015.0 $$ ANZ835-935-AMZ111-154-330-350-352-354-370-450-454-472-201100- ...C-MAN AND BUOY OBSERVATIONS... STATION/POSITION TIME TEMP WIND PRES WAVE SWELL AIR SEA DIR/SP/G HT/PER HT/PER/DIR (UTC) (F) (DEG/KT/KT) (MB) (FT/S) (FT/S/D) BUOY 41004 1000 80 82 260/ 8/ 10 1015.1 BUOY 41008 0950 80 80 220/ 10/ 10 1015.2R 3/11 2/ 50/11 FOLLY BEACH CMAN 1000 76 270/ 3/ 3 1016.3R CAPERS NEARSHORE 0908 76 80 260/ 8/ 10 1015.1R FRIPP NEARSHORE 0908 79 210/ 8/ 12 1022.1F STATION/POSITION TIME TEMP WIND PRES WAVE SWELL AIR SEA DIR/SP/G HT/PER HT/PER/DIR (UTC) (F) (DEG/KT/KT) (MB) (FT/S) (FT/S/D) 5E ST. MARYS GA 1000 81 N/A 3/13 2/ 80/13 FRYING PAN BUOY 1000 80 82 270/ 10/ 12 1015.0 BUOY 41025 0950 75 74 290/ 14/ 16 1013.0R 6/11 5/ 60/11 CAPE LOOKOUT NC 1000 75 270/ 7/ 8 1014.3R BUOY 41002 0950 78 80 290/ 6/ 6 1015.1R 9/11 8/ 30/11 BUOY 41010 0950 84 10/ 2/ 6 1015.1R 7/14 7/14 ST AUGUSTINE FL 1000 74 82 270/ 4/ 5 1015.8R $$

USA.gov is the U.S. government's official web portal to all federal, state and local government web resources and services.